Total_Precipitation_Accumulation
0.08 0.04 0.05 0.04 0.07 0.08 0.09 0.11 0.13 0.14 0.12 0.11 0.11 0.11 0.12 0.11 0.08 0.07 0.07 0.10 0.14 0.21 0.25 0.27 0.25 0.23 0.23 0.23 0.18 0.13 0.10 0.10 0.13 0.15 0.19 0.23 0.26 0.26 0.28 0.26 0.30 0.27 0.17
0.06 0.04 0.05 0.04 0.05 0.07 0.08 0.12 0.13 0.13 0.14 0.14 0.14 0.15 0.15 0.11 0.08 0.08 0.08 0.11 0.18 0.22 0.23 0.23 0.22 0.19 0.19 0.17 0.12 0.10 0.10 0.11 0.19 0.26 0.32 0.34 0.37 0.32 0.29 0.26 0.33 0.35 0.23
0.07 0.04 0.05 0.04 0.04 0.06 0.08 0.12 0.12 0.10 0.12 0.13 0.13 0.13 0.10 0.08 0.07 0.07 0.07 0.12 0.17 0.19 0.17 0.14 0.12 0.12 0.12 0.10 0.09 0.09 0.10 0.16 0.26 0.42 0.68 0.57 0.41 0.28 0.27 0.24 0.20 0.18 0.21
0.07 0.05 0.04 0.05 0.05 0.06 0.06 0.10 0.14 0.12 0.11 0.11 0.12 0.10 0.09 0.08 0.08 0.08 0.09 0.12 0.15 0.14 0.11 0.08 0.08 0.08 0.09 0.08 0.07 0.09 0.13 0.21 0.38 0.62 1.10 0.82 0.54 0.34 0.28 0.25 0.20 0.17 0.19
0.07 0.05 0.06 0.06 0.07 0.08 0.07 0.07 0.13 0.15 0.14 0.14 0.13 0.12 0.12 0.11 0.10 0.10 0.11 0.13 0.13 0.13 0.14 0.13 0.11 0.08 0.08 0.08 0.09 0.14 0.23 0.35 0.58 0.92 1.37 1.16 0.91 0.58 0.36 0.30 0.31 0.25 0.23
0.11 0.07 0.07 0.07 0.09 0.13 0.13 0.12 0.13 0.15 0.16 0.18 0.17 0.16 0.15 0.14 0.12 0.11 0.12 0.12 0.13 0.14 0.17 0.19 0.15 0.09 0.08 0.08 0.11 0.18 0.28 0.47 0.68 1.02 1.52 1.41 1.03 0.63 0.42 0.37 0.35 0.30 0.25
0.19 0.16 0.11 0.10 0.11 0.13 0.16 0.19 0.22 0.18 0.18 0.21 0.20 0.18 0.16 0.16 0.15 0.14 0.14 0.13 0.15 0.18 0.20 0.16 0.11 0.07 0.07 0.08 0.13 0.20 0.33 0.58 0.81 1.27 1.53 1.39 1.22 0.73 0.49 0.43 0.40 0.33 0.26
0.29 0.23 0.18 0.16 0.13 0.14 0.18 0.21 0.27 0.29 0.28 0.27 0.25 0.22 0.20 0.17 0.16 0.18 0.17 0.17 0.20 0.24 0.22 0.13 0.07 0.05 0.06 0.07 0.11 0.19 0.34 0.50 0.67 1.23 1.55 1.26 1.00 0.69 0.51 0.45 0.40 0.34 0.29
0.37 0.38 0.35 0.25 0.21 0.23 0.25 0.24 0.27 0.33 0.34 0.33 0.33 0.33 0.29 0.28 0.25 0.23 0.22 0.21 0.23 0.24 0.19 0.12 0.08 0.06 0.06 0.07 0.08 0.14 0.26 0.47 0.70 0.97 1.03 1.07 0.86 0.72 0.54 0.38 0.27 0.24 0.22
0.54 0.56 0.57 0.57 0.48 0.34 0.31 0.32 0.32 0.39 0.41 0.36 0.34 0.37 0.35 0.29 0.26 0.24 0.20 0.21 0.21 0.21 0.17 0.13 0.12 0.09 0.07 0.06 0.07 0.12 0.21 0.31 0.43 0.76 1.12 0.98 0.78 0.81 0.76 0.52 0.32 0.24 0.20
0.73 0.71 0.66 0.71 0.68 0.49 0.41 0.36 0.37 0.43 0.49 0.46 0.39 0.37 0.35 0.41 0.42 0.36 0.27 0.28 0.24 0.22 0.20 0.17 0.13 0.10 0.08 0.06 0.07 0.11 0.14 0.20 0.42 0.81 1.19 0.95 0.82 0.92 0.89 0.71 0.48 0.34 0.25
0.95 0.92 0.86 0.72 0.65 0.60 0.47 0.45 0.49 0.48 0.51 0.49 0.50 0.48 0.52 0.76 0.84 0.64 0.63 0.50 0.40 0.35 0.29 0.23 0.18 0.13 0.09 0.07 0.08 0.10 0.11 0.18 0.45 0.90 0.92 0.78 0.87 1.04 1.09 0.90 0.64 0.46 0.39
1.32 1.10 1.15 1.01 0.83 0.92 0.93 0.77 0.72 0.70 0.70 0.67 0.81 0.82 0.87 0.98 0.95 0.90 0.97 0.76 0.62 0.54 0.51 0.47 0.29 0.22 0.19 0.20 0.19 0.16 0.19 0.27 0.48 0.72 0.77 0.77 0.89 1.10 1.23 1.05 0.80 0.66 0.60
1.74 1.50 1.39 1.37 1.24 1.28 1.48 1.32 1.05 0.95 0.97 0.98 1.07 0.97 1.11 1.25 1.23 1.20 1.26 1.07 0.98 0.97 0.99 0.88 0.70 0.56 0.48 0.39 0.34 0.33 0.33 0.36 0.47 0.67 0.77 0.77 0.86 1.12 1.30 1.23 1.03 0.88 0.79
1.88 1.78 1.55 1.61 1.58 1.62 1.78 1.64 1.47 1.48 1.31 1.25 1.38 1.27 1.30 1.37 1.43 1.52 1.42 1.35 1.28 1.26 1.22 1.08 1.01 0.95 0.84 0.75 0.60 0.54 0.54 0.50 0.54 0.66 0.70 0.77 0.79 1.03 1.35 1.45 1.34 1.17 1.10
1.70 1.78 1.87 1.86 1.86 1.71 1.76 1.73 1.60 1.54 1.57 1.46 1.44 1.42 1.37 1.42 1.62 1.69 1.67 1.63 1.60 1.61 1.70 1.51 1.30 1.30 1.17 1.11 1.03 0.98 0.89 0.85 0.84 0.91 1.03 0.97 0.85 0.95 1.23 1.48 1.54 1.49 1.46
1.64 1.71 1.88 1.93 1.96 1.89 1.83 1.85 1.81 1.71 1.65 1.67 1.74 1.78 1.63 1.57 1.77 1.84 2.00 1.96 1.90 1.87 1.91 1.88 1.71 1.68 1.54 1.44 1.35 1.20 1.15 1.22 1.22 1.13 1.22 1.31 1.12 1.08 1.10 1.26 1.42 1.51 1.58
1.32 1.49 1.59 1.71 1.80 2.04 2.13 2.20 2.05 2.07 2.03 2.03 1.92 1.91 1.81 1.77 1.91 2.07 2.17 2.18 2.16 2.09 2.19 2.29 2.21 2.00 1.89 1.75 1.61 1.38 1.30 1.37 1.41 1.43 1.43 1.53 1.62 1.48 1.37 1.29 1.33 1.43 1.56
1.17 1.46 1.60 1.71 1.88 2.02 2.18 2.37 2.35 2.46 2.41 2.38 2.34 2.23 2.29 2.35 2.28 2.34 2.45 2.54 2.56 2.60 2.61 2.53 2.57 2.33 2.27 2.15 1.88 1.70 1.50 1.47 1.52 1.47 1.53 1.51 1.57 1.57 1.55 1.49 1.39 1.39 1.54
1.23 1.51 1.72 1.87 2.10 2.38 2.45 2.60 2.56 2.75 2.90 2.99 3.13 3.03 2.90 2.96 2.98 3.05 3.02 3.05 3.03 3.08 2.95 2.89 2.86 2.65 2.47 2.43 2.08 1.90 1.74 1.60 1.58 1.55 1.53 1.51 1.41 1.35 1.41 1.46 1.53 1.40 1.48
1.64 1.69 1.79 1.93 2.13 2.34 2.64 2.98 3.14 3.23 3.46 3.62 3.75 3.92 3.89 3.85 3.95 3.99 3.87 3.76 3.61 3.48 3.30 3.18 2.98 2.81 2.59 2.49 2.36 2.04 1.66 1.42 1.41 1.34 1.36 1.47 1.47 1.39 1.37 1.40 1.41 1.37 1.33
1.86 1.89 1.96 2.06 2.32 2.59 2.93 3.37 3.81 4.02 4.19 4.23 4.30 4.50 4.62 4.64 4.80 4.91 4.81 4.62 4.39 4.04 3.61 3.28 3.08 2.93 2.68 2.62 2.55 2.45 1.95 1.57 1.30 1.07 1.12 1.18 1.24 1.31 1.26 1.21 1.21 1.27 1.26
1.89 1.99 2.09 2.37 2.80 3.23 3.68 4.17 4.61 4.91 4.98 4.92 4.64 4.73 4.87 4.84 4.92 5.10 5.08 4.85 4.49 3.94 3.44 3.27 3.17 3.03 2.85 2.73 2.57 2.62 2.25 1.86 1.53 1.16 0.97 0.91 0.96 0.99 0.99 1.02 1.05 1.11 1.10
1.91 2.09 2.20 2.52 3.07 3.55 3.99 4.63 5.13 5.43 5.61 5.71 5.47 5.16 5.01 4.84 4.72 4.64 4.53 4.16 3.72 3.39 3.14 3.04 3.00 2.81 2.79 2.69 2.59 2.29 2.06 1.83 1.64 1.35 1.08 0.92 0.87 0.85 0.85 0.87 0.92 1.03 1.10
1.90 1.93 2.01 2.41 3.01 3.73 4.41 4.92 5.37 5.73 5.88 5.86 5.50 5.11 4.71 4.36 3.95 3.62 3.30 3.05 2.92 2.73 2.53 2.45 2.43 2.38 2.26 2.18 2.16 2.10 2.02 1.81 1.54 1.35 1.19 1.03 0.98 0.90 0.86 0.88 0.91 0.96 1.02
1.63 1.76 1.95 2.28 2.96 3.70 4.29 4.80 5.15 5.48 5.51 5.24 4.82 4.36 4.06 3.68 3.23 2.81 2.59 2.38 2.25 2.08 1.87 1.75 1.74 1.79 1.86 1.93 1.98 1.94 1.88 1.83 1.68 1.58 1.43 1.23 1.16 1.10 0.99 0.95 0.97 0.99 1.06